Saint Simons Island, GA

5:36 AM EST on December 08, 2019 (GMT -0500)
McKinnon

Weather History for KSSI - October, 2019

Change the Weather History Date:

Tuesday, October 29, 2019

  Actual Average Record
Temperature  
Mean Temperature 79 °F 66 °F  
Max Temperature 83 °F 75 °F 85 °F (1996)
Min Temperature 74 °F 58 °F 37 °F (1952)
Degree Days  
Heating Degree Days 0 2  
Month to date heating degree days 0 25  
Since 1 July heating degree days 0 25  
Cooling Degree Days 14 3  
Month to date cooling degree days 331 183  
Year to date cooling degree days 3318 2554  
Growing Degree Days 27 (Base 50)    
Moisture  
Dew Point 72 °F    
Average Humidity 87    
Maximum Humidity 94    
Minimum Humidity 79    
Precipitation  
Precipitation 0.10 in 0.10 in 0.94 in (1986)
Month to date precipitation 5.33 4.28  
Year to date precipitation 32.43 40.15  
Snow  
Snow 0.00 in - 0.00 in ()
Month to date snowfall 0.0  
Since 1 July snowfall 0.0  
Since 1 September snowfall 0.0  
Snow Depth 0.00 in    
Sea Level Pressure  
Sea Level Pressure 30.11 in    
Wind  
Wind Speed 6 mph (NNE)    
Max Wind Speed 17 mph    
Max Gust Speed 24 mph    
Visibility 10 miles    
Events Rain , Thunderstorm    
T = Trace of Precipitation, MM = Missing Value Source: NWS Daily Summary

Daily Weather History Graph

Daily Weather History Graph

Search for Another Location

Airport or City:

Astronomy

Oct. 29, 2019 Rise Set
Actual Time 7:38 AM EDT 6:39 PM EDT
Civil Twilight 7:13 AM EDT 7:04 PM EDT
Nautical Twilight 6:45 AM EDT 7:33 PM EDT
Astronomical Twilight 6:16 AM EDT 8:01 PM EDT
Moon 9:06 AM EDT (10/29) 8:08 PM EDT (10/29)
Length of Visible Light 11h 50m
Length of Day
11h 01m
Waxing Crescent, 3% of the Moon is Illuminated
Oct 29
Waxing Crescent
Nov 4
First Quarter
Nov 12
Full
Nov 19
Last Quarter
Nov 26
New

Hourly Weather History & Observations

Time (EDT) Temp. Heat Index Dew Point Humidity Pressure Visibility Wind Dir Wind Speed Gust Speed Precip Events Conditions
12:53 AM 75.0 °F - 71.1 °F 87% 30.08 in 10.0 mi Calm Calm - 0.00 in   Clear
1:53 AM 75.0 °F - 71.1 °F 87% 30.08 in 10.0 mi Calm Calm - 0.00 in   Clear
2:53 AM 75.0 °F - 71.1 °F 87% 30.07 in 10.0 mi Calm Calm - N/A   Clear
3:53 AM 75.0 °F - 72.0 °F 90% 30.07 in 10.0 mi Calm Calm - N/A   Clear
4:53 AM 75.0 °F - 72.0 °F 90% 30.07 in 10.0 mi Calm Calm - 0.00 in   Clear
5:53 AM 73.9 °F - 71.1 °F 91% 30.08 in 10.0 mi Calm Calm - 0.00 in   Clear
6:53 AM 75.0 °F - 72.0 °F 90% 30.09 in 10.0 mi Calm Calm - 0.00 in   Overcast
7:53 AM 75.9 °F - 72.0 °F 87% 30.09 in 10.0 mi Calm Calm - 0.00 in Rain Light Rain
8:53 AM 77.0 °F - 73.0 °F 88% 30.11 in 10.0 mi Calm Calm - 0.00 in   Overcast
9:53 AM 78.1 °F - 73.9 °F 87% 30.13 in 10.0 mi ENE 5.8 mph - 0.00 in   Overcast
10:53 AM 80.1 °F 84.2 °F 73.0 °F 79% 30.13 in 10.0 mi East 6.9 mph - 0.00 in   Mostly Cloudy
11:53 AM 81.0 °F 86.2 °F 73.9 °F 79% 30.13 in 10.0 mi East 6.9 mph - N/A   Mostly Cloudy
12:53 PM 80.1 °F 84.5 °F 73.9 °F 81% 30.12 in 10.0 mi ENE 6.9 mph - N/A   Overcast
1:51 PM 80.6 °F 85.4 °F 73.4 °F 79% 30.09 in 10.0 mi ENE 8.1 mph - N/A   Mostly Cloudy
1:53 PM 80.1 °F 84.2 °F 73.0 °F 79% 30.10 in 10.0 mi ENE 8.1 mph - N/A   Mostly Cloudy
2:53 PM 79.0 °F - 73.0 °F 82% 30.10 in 10.0 mi ENE 8.1 mph - 0.00 in Thunderstorm Thunderstorm
3:25 PM 77.0 °F - 72.0 °F 84% 30.08 in 7.0 mi North 9.2 mph - 0.02 in Rain , Thunderstorm Light Rain
3:37 PM 75.0 °F - 71.1 °F 87% 30.09 in 7.0 mi North 6.9 mph - 0.03 in Rain Light Rain
3:53 PM 73.9 °F - 70.0 °F 87% 30.10 in 10.0 mi North 9.2 mph - 0.03 in Rain Light Rain
4:53 PM 75.0 °F - 71.1 °F 87% 30.10 in 10.0 mi North 5.8 mph - 0.00 in Rain Light Rain
5:53 PM 75.0 °F - 71.1 °F 87% 30.10 in 10.0 mi NNE 6.9 mph - 0.00 in Rain Light Rain
6:43 PM 75.9 °F - 73.0 °F 91% 30.10 in 10.0 mi North 5.8 mph - 0.00 in   Scattered Clouds
6:51 PM 75.2 °F - 73.4 °F 94% 30.11 in 10.0 mi North 4.6 mph - 0.00 in   Mostly Cloudy
6:53 PM 75.9 °F - 73.0 °F 91% 30.11 in 10.0 mi North 5.8 mph - 0.00 in   Mostly Cloudy
7:53 PM 75.9 °F - 73.0 °F 91% 30.14 in 10.0 mi NNW 4.6 mph - 0.00 in   Overcast
7:59 PM 75.9 °F - 73.0 °F 91% 30.13 in 10.0 mi North 4.6 mph - N/A   Overcast
8:28 PM 75.9 °F - 73.0 °F 91% 30.13 in 8.0 mi NNE 4.6 mph - 0.00 in   Overcast
8:53 PM 77.0 °F - 73.9 °F 90% 30.13 in 6.0 mi NE 10.4 mph - 0.03 in Rain Rain
9:53 PM 75.9 °F - 73.0 °F 91% 30.14 in 10.0 mi NE 12.7 mph - 0.04 in   Overcast
10:53 PM 75.9 °F - 72.0 °F 87% 30.14 in 10.0 mi NE 13.8 mph 20.7 mph 0.00 in   Overcast
11:53 PM 75.9 °F - 72.0 °F 87% 30.14 in 10.0 mi ENE 16.1 mph - N/A   Overcast